Miscellaneous Local Product
Issued by NWS North Platte, NE

Home | Current Version | Previous Version | Graphics & Text | Print | Product List | Glossary On
Versions: 1 2 3 4 5 6 7 8 9 10 11 12 13 14 15 16 17 18 19 20 21 22 23 24 25 26 27 28 29 30 31 32 33 34 35 36 37 38 39 40 41 42 43 44 45 46 47 48 49 50
000
AXUS43 KLBF 021510
MISLBF


WESTERN AND NORTH CENTRAL NEBRASKA HOURLY WEATHER ROUNDUP
NATIONAL WEATHER SERVICE NORTH PLATTE NE
1000 AM CDT SAT MAY 02 2015

***STATIONS NOT REPORTING VARIABLES SUCH AS SKY/WEATHER OR
PRESSURE ARE PROVIDED BY THE NEBRASKA DEPARTMENT OF
ROADS...RAWS...AND APRS NETWORKS...AND ARE NOT UNDER
NATIONAL WEATHER SERVICE QUALITY CONTROL***

...OBSERVATIONS IN AND NEAR THE EASTERN PANHANDLE OF NEBRASKA...

CITY           SKY/WX    TMP DP  RH WIND       PRES   REMARKS
PINE RIDGE     SUNNY     64  48  56 SW8       29.83F
CHADRON        SUNNY     63  51  65 W7        29.83F
ALLIANCE       SUNNY     64  49  57 W8        29.87F
SIDNEY         SUNNY     67  50  54 W12       29.92F
WHITECLAY        N/A     64  47  54 S6          N/A
CRESCENT LAKE    N/A     64  50  60 SW7         N/A
BIG SPRINGS      N/A     63  53  71 SW7         N/A
$$

...OBSERVATIONS IN NORTH CENTRAL NEBRASKA...

CITY           SKY/WX    TMP DP  RH WIND       PRES   REMARKS
VALENTINE      SUNNY     67  50  54 S7        29.85F
THEDFORD       SUNNY     69  51  51 S7        29.89S
AINSWORTH      SUNNY     66  53  62 SE10      29.87F
O`NEILL        MOSUNNY   68  56  65 S9        29.88S
ORD            SUNNY     66  52  60 CALM      29.87F
BROKEN BOW     SUNNY     65  52  62 SE5       29.89F
BROWNLEE         N/A     67  51  55 SE10        N/A
VALENTINE NWR    N/A     61  55  81 S6          N/A
SPRINGVIEW       N/A     70  55  58 S3          N/A
HALSEY           N/A     65  53  65 S3          N/A
BREWSTER         N/A     69  57  65 S8          N/A
ROSE             N/A     68  59  73 E9          N/A
NEWPORT          N/A     70  55  60 S12         N/A
SARGENT          N/A     64  55  72 E3          N/A
COMSTOCK         N/A     71  59  65 S5          N/A
EWING            N/A     68  57  68 S6          N/A
$$

...OBSERVATIONS IN SOUTHWEST NEBRASKA AND FAR NORTHEAST COLORADO...

CITY           SKY/WX    TMP DP  RH WIND       PRES   REMARKS
WRAY           FAIR      64  52  66 W3        29.93F
IMPERIAL       SUNNY     64  52  64 SW7       29.91S
OGALLALA       SUNNY     60  52  76 CALM      29.89F
NORTH PLATTE   SUNNY     64  54  69 CALM      29.90F
MCCOOK         SUNNY     70  51  51 S8        29.89F
LEXINGTON      SUNNY     69  53  56 S5        29.90F
PAXTON           N/A     61  53  75 S3          N/A
SUTHERLAND       N/A     60  52  75 S6          N/A
GOTHENBURG       N/A     68  50  51 SE3         N/A
CALLAWAY         N/A     70  55  58 S10         N/A
$$

...NORTH PLATTE AREA...

CITY           SKY/WX    TMP DP  RH WIND       PRES   REMARKS
AIRPORT        SUNNY     64  54  69 CALM      29.90F
DOWNTOWN         N/A     66  53  62 S3          N/A
$$

...SOME WEATHER OBSERVATIONS FROM AROUND THE REGION...

CITY           SKY/WX    TMP DP  RH WIND       PRES   REMARKS
DENVER         PTSUNNY   65  40  39 SW8       30.00F
LARAMIE        CLOUDY    54  35  48 SW13      30.08S
CHEYENNE       SUNNY     62  37  39 NW13      30.01F
SCOTTSBLUFF    SUNNY     63  45  51 W10       29.89F
RAPID CITY     SUNNY     65  49  56 SE6       29.78F
PIERRE         SUNNY     68  48  48 SE9       29.77F
WINNER         FAIR      71  51  49 S17       29.82F
SIOUX FALLS    SUNNY     64  49  57 SE3       29.87F
OMAHA          CLOUDY    60  57  89 S14       29.96S
GRAND ISLAND   MOSUNNY   68  53  58 SW7       29.90S
KANSAS CITY    CLOUDY    60  52  74 S10       30.04F
WICHITA        LGT RAIN  62  54  74 S9        30.02S
HAYS           MOSUNNY   72  50  46 S16       29.94F
LIBERAL        MOSUNNY   68  50  52 S18       29.99S
GOODLAND       SUNNY     67  51  56 SW12      29.93F
$$



USA.gov is the U.S. government's official web portal to all federal, state and local government web resources and services.